Time,TemperatureF,DewpointF,PressureIn,WindDirection,WindDirectionDegrees,WindSpeedMPH,WindSpeedGustMPH,Humidity,HourlyPrecipIn,Conditions,Clouds,dailyrainin,SolarRadiationWatts/m^2,SoftwareType,DateUTC
2013-03-08 00:13:00,27.9,23.0,30.42,NW,313,1.0,-999.0,83,-99.99,,,0.00,0,weatherlink.com 1.10,2013-03-08 05:13:00,
2013-03-08 00:28:00,27.4,24.0,30.42,NNW,327,0.0,-999.0,85,-99.99,,,0.00,0,weatherlink.com 1.10,2013-03-08 05:28:00,
2013-03-08 00:43:00,27.0,23.0,30.42,NNW,327,1.0,-999.0,85,-99.99,,,0.00,0,weatherlink.com 1.10,2013-03-08 05:43:00,
2013-03-08 00:58:00,26.4,23.0,30.42,NNW,327,0.0,-999.0,86,-99.99,,,0.00,0,weatherlink.com 1.10,2013-03-08 05:58:00,
2013-03-08 01:13:00,25.8,23.0,30.42,NNW,327,0.0,-999.0,87,-99.99,,,0.00,0,weatherlink.com 1.10,2013-03-08 06:13:00,
2013-03-08 01:28:00,25.4,22.0,30.42,NNW,327,0.0,-999.0,88,-99.99,,,0.00,0,weatherlink.com 1.10,2013-03-08 06:28:00,
2013-03-08 01:43:00,25.2,22.0,30.42,NNW,335,0.0,-999.0,87,-99.99,,,0.00,0,weatherlink.com 1.10,2013-03-08 06:43:00,
2013-03-08 01:58:00,25.4,22.0,30.42,NNW,335,0.0,-999.0,88,-99.99,,,0.00,0,weatherlink.com 1.10,2013-03-08 06:58:00,
2013-03-08 02:13:00,26.1,23.0,30.43,NNW,335,0.0,-999.0,86,-99.99,,,0.00,0,weatherlink.com 1.10,2013-03-08 07:13:00,
2013-03-08 02:28:00,25.4,22.0,30.43,NNW,335,0.0,-999.0,86,-99.99,,,0.00,0,weatherlink.com 1.10,2013-03-08 07:28:00,
2013-03-08 02:43:00,24.3,21.0,30.43,NNW,335,0.0,-999.0,88,-99.99,,,0.00,0,weatherlink.com 1.10,2013-03-08 07:43:00,
2013-03-08 02:58:00,24.2,22.0,30.43,NNW,335,0.0,-999.0,89,-99.99,,,0.00,0,weatherlink.com 1.10,2013-03-08 07:58:00,
2013-03-08 03:13:00,23.9,21.0,30.43,NNW,335,0.0,-999.0,89,-99.99,,,0.00,0,weatherlink.com 1.10,2013-03-08 08:13:00,
2013-03-08 03:28:00,23.4,21.0,30.43,NNW,335,0.0,-999.0,89,-99.99,,,0.00,0,weatherlink.com 1.10,2013-03-08 08:28:00,
2013-03-08 03:43:00,23.3,21.0,30.43,NNW,335,2.0,-999.0,91,-99.99,,,0.00,0,weatherlink.com 1.10,2013-03-08 08:43:00,
2013-03-08 03:58:00,23.1,21.0,30.43,NNW,339,2.0,-999.0,90,-99.99,,,0.00,0,weatherlink.com 1.10,2013-03-08 08:58:00,
2013-03-08 04:13:00,22.9,21.0,30.43,NNW,342,0.0,-999.0,91,-99.99,,,0.00,0,weatherlink.com 1.10,2013-03-08 09:13:00,
2013-03-08 04:28:00,23.0,21.0,30.44,NW,326,2.0,-999.0,91,-99.99,,,0.00,0,weatherlink.com 1.10,2013-03-08 09:28:00,
2013-03-08 04:43:00,22.5,20.0,30.45,NNW,327,0.0,-999.0,91,-99.99,,,0.00,0,weatherlink.com 1.10,2013-03-08 09:43:00,
2013-03-08 04:59:00,22.2,20.0,30.45,NW,326,0.0,-999.0,92,-99.99,,,0.00,0,weatherlink.com 1.10,2013-03-08 09:59:00,
2013-03-08 05:13:00,22.2,20.0,30.45,NNW,327,0.0,-999.0,92,-99.99,,,0.00,0,weatherlink.com 1.10,2013-03-08 10:13:00,
2013-03-08 05:28:00,21.4,19.0,30.45,NW,326,0.0,-999.0,91,-99.99,,,0.00,0,weatherlink.com 1.10,2013-03-08 10:28:00,
2013-03-08 05:43:00,21.2,19.0,30.45,NW,326,0.0,-999.0,92,-99.99,,,0.00,0,weatherlink.com 1.10,2013-03-08 10:43:00,
2013-03-08 05:58:00,20.7,19.0,30.46,NW,326,0.0,-999.0,92,-99.99,,,0.00,0,weatherlink.com 1.10,2013-03-08 10:58:00,
2013-03-08 06:13:00,20.0,18.0,30.47,NW,326,0.0,-999.0,92,-99.99,,,0.00,0,weatherlink.com 1.10,2013-03-08 11:13:00,
2013-03-08 06:28:00,19.7,18.0,30.46,NNW,327,0.0,-999.0,93,-99.99,,,0.00,0,weatherlink.com 1.10,2013-03-08 11:28:00,
2013-03-08 06:43:00,19.9,18.0,30.46,NNW,327,0.0,-999.0,93,-99.99,,,0.00,0,weatherlink.com 1.10,2013-03-08 11:43:00,
2013-03-08 06:58:00,19.4,18.0,30.47,NNW,327,0.0,-999.0,93,-99.99,,,0.00,0,weatherlink.com 1.10,2013-03-08 11:58:00,
2013-03-08 07:13:00,19.1,17.0,30.47,NNW,327,0.0,-999.0,93,-99.99,,,0.00,7,weatherlink.com 1.10,2013-03-08 12:13:00,
2013-03-08 07:28:00,19.1,17.0,30.47,NNW,327,0.0,-999.0,93,-99.99,,,0.00,18,weatherlink.com 1.10,2013-03-08 12:28:00,
2013-03-08 07:43:00,18.5,17.0,30.48,NNW,327,1.0,-999.0,93,-99.99,,,0.00,26,weatherlink.com 1.10,2013-03-08 12:43:00,
2013-03-08 07:58:00,19.5,18.0,30.49,NW,326,0.0,-999.0,93,-99.99,,,0.00,46,weatherlink.com 1.10,2013-03-08 12:58:00,
2013-03-08 08:13:00,20.5,19.0,30.49,NW,326,0.0,-999.0,94,-99.99,,,0.00,72,weatherlink.com 1.10,2013-03-08 13:13:00,
2013-03-08 08:28:00,21.3,20.0,30.49,NNW,327,0.0,-999.0,93,-99.99,,,0.00,114,weatherlink.com 1.10,2013-03-08 13:28:00,
2013-03-08 08:43:00,22.9,21.0,30.50,NNE,20,2.0,-999.0,93,-99.99,,,0.00,74,weatherlink.com 1.10,2013-03-08 13:43:00,
2013-03-08 08:58:00,23.8,22.0,30.50,NNE,26,2.0,-999.0,92,-99.99,,,0.00,128,weatherlink.com 1.10,2013-03-08 13:58:00,
2013-03-08 09:13:00,24.8,23.0,30.50,NNE,22,1.0,-999.0,91,-99.99,,,0.00,163,weatherlink.com 1.10,2013-03-08 14:13:00,
2013-03-08 09:28:00,26.3,23.0,30.50,NNE,27,3.0,-999.0,88,-99.99,,,0.00,207,weatherlink.com 1.10,2013-03-08 14:28:00,
2013-03-08 09:43:00,27.6,24.0,30.50,NE,35,2.0,-999.0,85,-99.99,,,0.00,418,weatherlink.com 1.10,2013-03-08 14:43:00,
2013-03-08 09:59:00,29.5,24.0,30.50,East,96,5.0,-999.0,81,-99.99,,,0.00,452,weatherlink.com 1.10,2013-03-08 14:59:00,
2013-03-08 10:13:00,30.6,24.0,30.51,East,95,3.0,-999.0,77,-99.99,,,0.00,499,weatherlink.com 1.10,2013-03-08 15:13:00,
2013-03-08 10:28:00,31.9,25.0,30.51,East,100,3.0,-999.0,74,-99.99,,,0.00,536,weatherlink.com 1.10,2013-03-08 15:28:00,
2013-03-08 10:43:00,32.8,25.0,30.50,ENE,75,3.0,-999.0,74,-99.99,,,0.00,555,weatherlink.com 1.10,2013-03-08 15:43:00,
2013-03-08 10:58:00,33.7,26.0,30.51,ENE,65,4.0,-999.0,74,-99.99,,,0.00,606,weatherlink.com 1.10,2013-03-08 15:58:00,
2013-03-08 11:13:00,34.1,26.0,30.51,SE,142,4.0,-999.0,72,-99.99,,,0.00,591,weatherlink.com 1.10,2013-03-08 16:13:00,
2013-03-08 11:28:00,35.1,27.0,30.50,SE,133,1.0,-999.0,71,-99.99,,,0.00,661,weatherlink.com 1.10,2013-03-08 16:28:00,
2013-03-08 11:43:00,35.7,27.0,30.50,SE,137,4.0,-999.0,70,-99.99,,,0.00,652,weatherlink.com 1.10,2013-03-08 16:43:00,
2013-03-08 11:57:00,36.9,27.0,30.49,SE,124,2.0,-999.0,67,-99.99,,,0.00,715,weatherlink.com 1.10,2013-03-08 16:57:00,
2013-03-08 12:12:00,37.4,26.0,30.49,ESE,123,2.0,-999.0,64,-99.99,,,0.00,666,weatherlink.com 1.10,2013-03-08 17:12:00,
2013-03-08 12:28:00,38.1,26.0,30.49,ESE,115,3.0,-999.0,63,-99.99,,,0.00,773,weatherlink.com 1.10,2013-03-08 17:28:00,
2013-03-08 12:43:00,38.1,26.0,30.49,SE,131,5.0,-999.0,61,-99.99,,,0.00,745,weatherlink.com 1.10,2013-03-08 17:43:00,
2013-03-08 12:58:00,38.9,26.0,30.49,SE,140,1.0,-999.0,61,-99.99,,,0.00,749,weatherlink.com 1.10,2013-03-08 17:58:00,
2013-03-08 13:13:00,38.5,26.0,30.48,East,83,2.0,-999.0,60,-99.99,,,0.00,737,weatherlink.com 1.10,2013-03-08 18:13:00,
2013-03-08 13:28:00,39.0,25.0,30.48,ENE,67,0.0,-999.0,58,-99.99,,,0.00,733,weatherlink.com 1.10,2013-03-08 18:28:00,
2013-03-08 13:43:00,39.1,26.0,30.48,SSE,149,3.0,-999.0,59,-99.99,,,0.00,724,weatherlink.com 1.10,2013-03-08 18:43:00,
2013-03-08 13:58:00,39.1,27.0,30.47,ESE,117,2.0,-999.0,61,-99.99,,,0.00,712,weatherlink.com 1.10,2013-03-08 18:58:00,
2013-03-08 14:13:00,39.4,26.0,30.47,SE,132,1.0,-999.0,58,-99.99,,,0.00,696,weatherlink.com 1.10,2013-03-08 19:13:00,
2013-03-08 14:28:00,38.9,26.0,30.46,East,95,0.0,-999.0,61,-99.99,,,0.00,675,weatherlink.com 1.10,2013-03-08 19:28:00,
2013-03-08 14:43:00,39.3,26.0,30.45,SE,124,5.0,-999.0,59,-99.99,,,0.00,652,weatherlink.com 1.10,2013-03-08 19:43:00,
2013-03-08 14:58:00,39.3,25.0,30.45,East,95,3.0,-999.0,58,-99.99,,,0.00,624,weatherlink.com 1.10,2013-03-08 19:58:00,
2013-03-08 15:13:00,39.7,26.0,30.44,SSE,147,4.0,-999.0,58,-99.99,,,0.00,598,weatherlink.com 1.10,2013-03-08 20:13:00,
2013-03-08 15:28:00,39.8,26.0,30.44,NE,47,2.0,-999.0,59,-99.99,,,0.00,563,weatherlink.com 1.10,2013-03-08 20:28:00,
2013-03-08 15:58:00,39.4,26.0,30.44,SE,133,4.0,-999.0,59,-99.99,,,0.00,487,weatherlink.com 1.10,2013-03-08 20:58:00,
2013-03-08 16:13:00,39.5,27.0,30.43,ESE,108,1.0,-999.0,61,-99.99,,,0.00,443,weatherlink.com 1.10,2013-03-08 21:13:00,
2013-03-08 16:28:00,39.6,27.0,30.43,SSE,149,4.0,-999.0,61,-99.99,,,0.00,401,weatherlink.com 1.10,2013-03-08 21:28:00,
2013-03-08 16:43:00,39.2,27.0,30.43,SE,130,5.0,-999.0,61,-99.99,,,0.00,355,weatherlink.com 1.10,2013-03-08 21:43:00,
2013-03-08 16:58:00,39.2,26.0,30.42,ESE,109,2.0,-999.0,59,-99.99,,,0.00,309,weatherlink.com 1.10,2013-03-08 21:58:00,
2013-03-08 17:13:00,38.8,25.0,30.42,East,95,1.0,-999.0,58,-99.99,,,0.00,258,weatherlink.com 1.10,2013-03-08 22:13:00,
2013-03-08 17:28:00,38.5,26.0,30.42,ESE,119,1.0,-999.0,62,-99.99,,,0.00,176,weatherlink.com 1.10,2013-03-08 22:28:00,
2013-03-08 17:43:00,38.0,26.0,30.42,ENE,69,0.0,-999.0,62,-99.99,,,0.00,100,weatherlink.com 1.10,2013-03-08 22:43:00,
2013-03-08 17:58:00,37.1,26.0,30.41,ENE,77,0.0,-999.0,64,-99.99,,,0.00,74,weatherlink.com 1.10,2013-03-08 22:58:00,
2013-03-08 18:13:00,36.6,25.0,30.41,East,81,2.0,-999.0,63,-99.99,,,0.00,60,weatherlink.com 1.10,2013-03-08 23:13:00,
2013-03-08 18:28:00,36.3,25.0,30.41,East,81,0.0,-999.0,63,-99.99,,,0.00,30,weatherlink.com 1.10,2013-03-08 23:28:00,
2013-03-08 18:43:00,35.5,25.0,30.42,ENE,59,0.0,-999.0,65,-99.99,,,0.00,5,weatherlink.com 1.10,2013-03-08 23:43:00,
2013-03-08 18:58:00,34.2,25.0,30.42,ENE,72,0.0,-999.0,70,-99.99,,,0.00,0,weatherlink.com 1.10,2013-03-08 23:58:00,
2013-03-08 19:13:00,33.4,25.0,30.42,East,89,0.0,-999.0,71,-99.99,,,0.00,0,weatherlink.com 1.10,2013-03-09 00:13:00,
2013-03-08 19:28:00,32.4,25.0,30.42,East,99,0.0,-999.0,74,-99.99,,,0.00,0,weatherlink.com 1.10,2013-03-09 00:28:00,
2013-03-08 19:43:00,31.1,25.0,30.42,East,100,1.0,-999.0,77,-99.99,,,0.00,0,weatherlink.com 1.10,2013-03-09 00:43:00,
2013-03-08 19:58:00,30.6,25.0,30.42,East,93,0.0,-999.0,78,-99.99,,,0.00,0,weatherlink.com 1.10,2013-03-09 00:58:00,
2013-03-08 20:13:00,31.2,24.0,30.42,ENE,78,1.0,-999.0,75,-99.99,,,0.00,0,weatherlink.com 1.10,2013-03-09 01:13:00,
2013-03-08 20:28:00,31.4,24.0,30.42,East,98,0.0,-999.0,74,-99.99,,,0.00,0,weatherlink.com 1.10,2013-03-09 01:28:00,
2013-03-08 20:43:00,31.2,24.0,30.43,ESE,108,0.0,-999.0,75,-99.99,,,0.00,0,weatherlink.com 1.10,2013-03-09 01:43:00,
2013-03-08 20:58:00,30.2,24.0,30.43,ESE,112,0.0,-999.0,77,-99.99,,,0.00,0,weatherlink.com 1.10,2013-03-09 01:58:00,
2013-03-08 21:13:00,29.5,24.0,30.43,ESE,112,0.0,-999.0,79,-99.99,,,0.00,0,weatherlink.com 1.10,2013-03-09 02:13:00,
2013-03-08 21:28:00,28.9,23.0,30.43,ENE,78,0.0,-999.0,79,-99.99,,,0.00,0,weatherlink.com 1.10,2013-03-09 02:28:00,
2013-03-08 21:43:00,29.1,24.0,30.41,ENE,68,0.0,-999.0,80,-99.99,,,0.00,0,weatherlink.com 1.10,2013-03-09 02:43:00,
2013-03-08 21:58:00,29.3,23.0,30.41,NE,56,0.0,-999.0,78,-99.99,,,0.00,0,weatherlink.com 1.10,2013-03-09 02:58:00,
2013-03-08 22:13:00,29.6,24.0,30.41,ESE,108,0.0,-999.0,78,-99.99,,,0.00,0,weatherlink.com 1.10,2013-03-09 03:13:00,
2013-03-08 22:28:00,28.8,23.0,30.41,East,84,0.0,-999.0,79,-99.99,,,0.00,0,weatherlink.com 1.10,2013-03-09 03:28:00,
2013-03-08 22:43:00,28.1,23.0,30.41,SE,143,1.0,-999.0,81,-99.99,,,0.00,0,weatherlink.com 1.10,2013-03-09 03:43:00,
2013-03-08 22:58:00,28.0,23.0,30.41,SE,143,0.0,-999.0,82,-99.99,,,0.00,0,weatherlink.com 1.10,2013-03-09 03:58:00,
2013-03-08 23:13:00,27.9,23.0,30.41,SE,137,0.0,-999.0,81,-99.99,,,0.00,0,weatherlink.com 1.10,2013-03-09 04:13:00,
2013-03-08 23:28:00,27.6,23.0,30.41,SE,137,0.0,-999.0,83,-99.99,,,0.00,0,weatherlink.com 1.10,2013-03-09 04:28:00,
2013-03-08 23:43:00,28.1,23.0,30.41,East,87,0.0,-999.0,82,-99.99,,,0.00,0,weatherlink.com 1.10,2013-03-09 04:43:00,
2013-03-08 23:58:00,28.5,23.0,30.40,East,80,2.0,-999.0,81,-99.99,,,0.00,0,weatherlink.com 1.10,2013-03-09 04:58:00,